﻿測定場所 (Monitoring sites),日付 (Measurement date),時間 (Measurement time),線量率 最大値 (max) μGy/h,線量率 最小値 (min) μGy/h,線量率 平均値 (average) μGy/h,
江戸川 (Edogawa),2015-10-04,23:01～24:00,0.0646,0.0568,0.0610,
江戸川 (Edogawa),2015-10-04,22:01～23:00,0.0633,0.0577,0.0607,
江戸川 (Edogawa),2015-10-04,21:01～22:00,0.0649,0.0565,0.0607,
江戸川 (Edogawa),2015-10-04,20:01～21:00,0.0650,0.0580,0.0609,
江戸川 (Edogawa),2015-10-04,19:01～20:00,0.0643,0.0577,0.0612,
江戸川 (Edogawa),2015-10-04,18:01～19:00,0.0639,0.0576,0.0608,
江戸川 (Edogawa),2015-10-04,17:01～18:00,0.0640,0.0571,0.0609,
江戸川 (Edogawa),2015-10-04,16:01～17:00,0.0636,0.0577,0.0609,
江戸川 (Edogawa),2015-10-04,15:01～16:00,0.0637,0.0560,0.0609,
江戸川 (Edogawa),2015-10-04,14:01～15:00,0.0634,0.0581,0.0610,
江戸川 (Edogawa),2015-10-04,13:01～14:00,0.0649,0.0573,0.0613,
江戸川 (Edogawa),2015-10-04,12:01～13:00,0.0648,0.0567,0.0609,
江戸川 (Edogawa),2015-10-04,11:01～12:00,0.0642,0.0566,0.0611,
江戸川 (Edogawa),2015-10-04,10:01～11:00,0.0646,0.0581,0.0612,
江戸川 (Edogawa),2015-10-04,09:01～10:00,0.0652,0.0578,0.0612,
江戸川 (Edogawa),2015-10-04,08:01～09:00,0.0638,0.0573,0.0612,
江戸川 (Edogawa),2015-10-04,07:01～08:00,0.0653,0.0581,0.0612,
江戸川 (Edogawa),2015-10-04,06:01～07:00,0.0651,0.0574,0.0611,
江戸川 (Edogawa),2015-10-04,05:01～06:00,0.0656,0.0578,0.0612,
江戸川 (Edogawa),2015-10-04,04:01～05:00,0.0644,0.0590,0.0613,
江戸川 (Edogawa),2015-10-04,03:01～04:00,0.0650,0.0577,0.0614,
江戸川 (Edogawa),2015-10-04,02:01～03:00,0.0687,0.0574,0.0614,
江戸川 (Edogawa),2015-10-04,01:01～02:00,0.0662,0.0563,0.0612,
江戸川 (Edogawa),2015-10-04,00:01～01:00,0.0651,0.0580,0.0611,
江戸川 (Edogawa),2015-10-03,23:01～24:00,0.0654,0.0573,0.0606,
江戸川 (Edogawa),2015-10-03,22:01～23:00,0.0657,0.0569,0.0615,
江戸川 (Edogawa),2015-10-03,21:01～22:00,0.0645,0.0567,0.0611,
江戸川 (Edogawa),2015-10-03,20:01～21:00,0.0652,0.0583,0.0609,
江戸川 (Edogawa),2015-10-03,19:01～20:00,0.0649,0.0583,0.0611,
江戸川 (Edogawa),2015-10-03,18:01～19:00,0.0641,0.0566,0.0609,
江戸川 (Edogawa),2015-10-03,17:01～18:00,0.0640,0.0579,0.0606,
江戸川 (Edogawa),2015-10-03,16:01～17:00,0.0639,0.0569,0.0605,
江戸川 (Edogawa),2015-10-03,15:01～16:00,0.0646,0.0571,0.0610,
江戸川 (Edogawa),2015-10-03,14:01～15:00,0.0642,0.0579,0.0609,
江戸川 (Edogawa),2015-10-03,13:01～14:00,0.0646,0.0581,0.0609,
江戸川 (Edogawa),2015-10-03,12:01～13:00,0.0644,0.0580,0.0609,
江戸川 (Edogawa),2015-10-03,11:01～12:00,0.0644,0.0569,0.0607,
江戸川 (Edogawa),2015-10-03,10:01～11:00,0.0651,0.0572,0.0605,
江戸川 (Edogawa),2015-10-03,09:01～10:00,0.0636,0.0571,0.0606,
江戸川 (Edogawa),2015-10-03,08:01～09:00,0.0642,0.0563,0.0608,
江戸川 (Edogawa),2015-10-03,07:01～08:00,0.0655,0.0577,0.0610,
江戸川 (Edogawa),2015-10-03,06:01～07:00,0.0647,0.0566,0.0606,
江戸川 (Edogawa),2015-10-03,05:01～06:00,0.0637,0.0569,0.0603,
江戸川 (Edogawa),2015-10-03,04:01～05:00,0.0639,0.0558,0.0602,
江戸川 (Edogawa),2015-10-03,03:01～04:00,0.0624,0.0563,0.0599,
江戸川 (Edogawa),2015-10-03,02:01～03:00,0.0650,0.0575,0.0602,
江戸川 (Edogawa),2015-10-03,01:01～02:00,0.0642,0.0580,0.0604,
江戸川 (Edogawa),2015-10-03,00:01～01:00,0.0641,0.0575,0.0606,
江戸川 (Edogawa),2015-10-02,23:01～24:00,0.0654,0.0562,0.0600,
江戸川 (Edogawa),2015-10-02,22:01～23:00,0.0641,0.0570,0.0607,
江戸川 (Edogawa),2015-10-02,21:01～22:00,0.0642,0.0561,0.0605,
江戸川 (Edogawa),2015-10-02,20:01～21:00,0.0638,0.0573,0.0607,
江戸川 (Edogawa),2015-10-02,19:01～20:00,0.0643,0.0577,0.0610,
江戸川 (Edogawa),2015-10-02,18:01～19:00,0.0643,0.0580,0.0606,
江戸川 (Edogawa),2015-10-02,17:01～18:00,0.0639,0.0560,0.0604,
江戸川 (Edogawa),2015-10-02,16:01～17:00,0.0647,0.0555,0.0601,
江戸川 (Edogawa),2015-10-02,15:01～16:00,0.0634,0.0538,0.0584,
江戸川 (Edogawa),2015-10-02,14:01～15:00,0.0633,0.0567,0.0597,
江戸川 (Edogawa),2015-10-02,13:01～14:00,0.0651,0.0572,0.0603,
江戸川 (Edogawa),2015-10-02,12:01～13:00,0.0633,0.0569,0.0601,
江戸川 (Edogawa),2015-10-02,11:01～12:00,0.0639,0.0567,0.0600,
江戸川 (Edogawa),2015-10-02,10:01～11:00,0.0641,0.0571,0.0606,
江戸川 (Edogawa),2015-10-02,09:01～10:00,0.0682,0.0590,0.0628,
江戸川 (Edogawa),2015-10-02,08:01～09:00,0.0752,0.0623,0.0680,
江戸川 (Edogawa),2015-10-02,07:01～08:00,0.0992,0.0716,0.0846,
江戸川 (Edogawa),2015-10-02,06:01～07:00,0.100,0.0732,0.0868,
江戸川 (Edogawa),2015-10-02,05:01～06:00,0.0811,0.0611,0.0701,
江戸川 (Edogawa),2015-10-02,04:01～05:00,0.0655,0.0571,0.0606,
江戸川 (Edogawa),2015-10-02,03:01～04:00,0.0643,0.0558,0.0604,
江戸川 (Edogawa),2015-10-02,02:01～03:00,0.0646,0.0577,0.0604,
江戸川 (Edogawa),2015-10-02,01:01～02:00,0.0638,0.0578,0.0607,
江戸川 (Edogawa),2015-10-02,00:01～01:00,0.0640,0.0565,0.0603,
江戸川 (Edogawa),2015-10-01,23:01～24:00,0.0632,0.0572,0.0604,
江戸川 (Edogawa),2015-10-01,22:01～23:00,0.0636,0.0565,0.0605,
江戸川 (Edogawa),2015-10-01,21:01～22:00,0.0633,0.0577,0.0602,
江戸川 (Edogawa),2015-10-01,20:01～21:00,0.0641,0.0579,0.0615,
江戸川 (Edogawa),2015-10-01,19:01～20:00,0.0706,0.0589,0.0647,
江戸川 (Edogawa),2015-10-01,18:01～19:00,0.0743,0.0667,0.0704,
江戸川 (Edogawa),2015-10-01,17:01～18:00,0.0772,0.0667,0.0711,
江戸川 (Edogawa),2015-10-01,16:01～17:00,0.0730,0.0648,0.0683,
江戸川 (Edogawa),2015-10-01,15:01～16:00,0.0757,0.0646,0.0705,
江戸川 (Edogawa),2015-10-01,14:01～15:00,0.0711,0.0616,0.0658,
江戸川 (Edogawa),2015-10-01,13:01～14:00,0.0661,0.0586,0.0623,
江戸川 (Edogawa),2015-10-01,12:01～13:00,0.0653,0.0587,0.0622,
江戸川 (Edogawa),2015-10-01,11:01～12:00,0.0656,0.0573,0.0623,
江戸川 (Edogawa),2015-10-01,10:01～11:00,0.0657,0.0580,0.0620,
江戸川 (Edogawa),2015-10-01,09:01～10:00,0.0671,0.0592,0.0629,
江戸川 (Edogawa),2015-10-01,08:01～09:00,0.0663,0.0584,0.0630,
江戸川 (Edogawa),2015-10-01,07:01～08:00,0.0668,0.0578,0.0625,
江戸川 (Edogawa),2015-10-01,06:01～07:00,0.0660,0.0590,0.0623,
江戸川 (Edogawa),2015-10-01,05:01～06:00,0.0661,0.0594,0.0626,
江戸川 (Edogawa),2015-10-01,04:01～05:00,0.0661,0.0589,0.0622,
江戸川 (Edogawa),2015-10-01,03:01～04:00,0.0660,0.0591,0.0626,
江戸川 (Edogawa),2015-10-01,02:01～03:00,0.0656,0.0588,0.0622,
江戸川 (Edogawa),2015-10-01,01:01～02:00,0.0652,0.0597,0.0619,
江戸川 (Edogawa),2015-10-01,00:01～01:00,0.0657,0.0581,0.0619,
江戸川 (Edogawa),2015-09-30,23:01～24:00,0.0667,0.0584,0.0618,
江戸川 (Edogawa),2015-09-30,22:01～23:00,0.0659,0.0588,0.0616,
江戸川 (Edogawa),2015-09-30,21:01～22:00,0.0654,0.0591,0.0621,
江戸川 (Edogawa),2015-09-30,20:01～21:00,0.0650,0.0580,0.0616,
江戸川 (Edogawa),2015-09-30,19:01～20:00,0.0641,0.0586,0.0615,
江戸川 (Edogawa),2015-09-30,18:01～19:00,0.0655,0.0581,0.0618,
江戸川 (Edogawa),2015-09-30,17:01～18:00,0.0647,0.0570,0.0616,
江戸川 (Edogawa),2015-09-30,16:01～17:00,0.0644,0.0582,0.0615,
江戸川 (Edogawa),2015-09-30,15:01～16:00,0.0646,0.0562,0.0616,
江戸川 (Edogawa),2015-09-30,14:01～15:00,0.0652,0.0591,0.0617,
江戸川 (Edogawa),2015-09-30,13:01～14:00,0.0657,0.0586,0.0618,
江戸川 (Edogawa),2015-09-30,12:01～13:00,0.0652,0.0577,0.0617,
江戸川 (Edogawa),2015-09-30,11:01～12:00,0.0650,0.0579,0.0616,
江戸川 (Edogawa),2015-09-30,10:01～11:00,0.0672,0.0583,0.0613,
江戸川 (Edogawa),2015-09-30,09:01～10:00,0.0660,0.0589,0.0619,
江戸川 (Edogawa),2015-09-30,08:01～09:00,0.0651,0.0580,0.0615,
江戸川 (Edogawa),2015-09-30,07:01～08:00,0.0651,0.0573,0.0613,
江戸川 (Edogawa),2015-09-30,06:01～07:00,0.0653,0.0587,0.0615,
江戸川 (Edogawa),2015-09-30,05:01～06:00,0.0658,0.0591,0.0614,
江戸川 (Edogawa),2015-09-30,04:01～05:00,0.0635,0.0580,0.0610,
江戸川 (Edogawa),2015-09-30,03:01～04:00,0.0655,0.0581,0.0613,
江戸川 (Edogawa),2015-09-30,02:01～03:00,0.0651,0.0576,0.0613,
江戸川 (Edogawa),2015-09-30,01:01～02:00,0.0660,0.0582,0.0617,
江戸川 (Edogawa),2015-09-30,00:01～01:00,0.0648,0.0592,0.0618,
江戸川 (Edogawa),2015-09-29,23:01～24:00,0.0639,0.0584,0.0617,
江戸川 (Edogawa),2015-09-29,22:01～23:00,0.0648,0.0559,0.0615,
江戸川 (Edogawa),2015-09-29,21:01～22:00,0.0656,0.0573,0.0614,
江戸川 (Edogawa),2015-09-29,20:01～21:00,0.0658,0.0582,0.0612,
江戸川 (Edogawa),2015-09-29,19:01～20:00,0.0648,0.0577,0.0612,
江戸川 (Edogawa),2015-09-29,18:01～19:00,0.0654,0.0578,0.0617,
江戸川 (Edogawa),2015-09-29,17:01～18:00,0.0653,0.0586,0.0613,
江戸川 (Edogawa),2015-09-29,16:01～17:00,0.0650,0.0577,0.0615,
江戸川 (Edogawa),2015-09-29,15:01～16:00,0.0657,0.0585,0.0613,
江戸川 (Edogawa),2015-09-29,14:01～15:00,0.0670,0.0578,0.0618,
江戸川 (Edogawa),2015-09-29,13:01～14:00,0.0646,0.0575,0.0611,
江戸川 (Edogawa),2015-09-29,12:01～13:00,0.0659,0.0585,0.0617,
江戸川 (Edogawa),2015-09-29,11:01～12:00,0.0647,0.0584,0.0616,
江戸川 (Edogawa),2015-09-29,10:01～11:00,0.0640,0.0566,0.0612,
江戸川 (Edogawa),2015-09-29,09:01～10:00,0.0634,0.0581,0.0607,
江戸川 (Edogawa),2015-09-29,08:01～09:00,0.0655,0.0586,0.0614,
江戸川 (Edogawa),2015-09-29,07:01～08:00,0.0647,0.0579,0.0610,
江戸川 (Edogawa),2015-09-29,06:01～07:00,0.0645,0.0573,0.0611,
江戸川 (Edogawa),2015-09-29,05:01～06:00,0.0642,0.0562,0.0608,
江戸川 (Edogawa),2015-09-29,04:01～05:00,0.0661,0.0577,0.0611,
江戸川 (Edogawa),2015-09-29,03:01～04:00,0.0633,0.0569,0.0607,
江戸川 (Edogawa),2015-09-29,02:01～03:00,0.0644,0.0563,0.0607,
江戸川 (Edogawa),2015-09-29,01:01～02:00,0.0641,0.0576,0.0609,
江戸川 (Edogawa),2015-09-29,00:01～01:00,0.0632,0.0567,0.0605,
江戸川 (Edogawa),2015-09-28,23:01～24:00,0.0636,0.0562,0.0610,
江戸川 (Edogawa),2015-09-28,22:01～23:00,0.0662,0.0578,0.0609,
江戸川 (Edogawa),2015-09-28,21:01～22:00,0.0637,0.0566,0.0603,
江戸川 (Edogawa),2015-09-28,20:01～21:00,0.0642,0.0567,0.0602,
江戸川 (Edogawa),2015-09-28,19:01～20:00,0.0664,0.0577,0.0605,
江戸川 (Edogawa),2015-09-28,18:01～19:00,0.0634,0.0556,0.0603,
江戸川 (Edogawa),2015-09-28,17:01～18:00,0.0629,0.0576,0.0605,
江戸川 (Edogawa),2015-09-28,16:01～17:00,0.0641,0.0567,0.0606,
江戸川 (Edogawa),2015-09-28,15:01～16:00,0.0642,0.0580,0.0607,
江戸川 (Edogawa),2015-09-28,14:01～15:00,0.0631,0.0567,0.0601,
江戸川 (Edogawa),2015-09-28,13:01～14:00,0.0639,0.0573,0.0603,
江戸川 (Edogawa),2015-09-28,12:01～13:00,0.0631,0.0568,0.0601,
江戸川 (Edogawa),2015-09-28,11:01～12:00,0.0631,0.0563,0.0598,
江戸川 (Edogawa),2015-09-28,10:01～11:00,0.0626,0.0566,0.0598,
江戸川 (Edogawa),2015-09-28,09:01～10:00,0.0641,0.0568,0.0602,
江戸川 (Edogawa),2015-09-28,08:01～09:00,0.0630,0.0568,0.0599,
江戸川 (Edogawa),2015-09-28,07:01～08:00,0.0639,0.0568,0.0597,
江戸川 (Edogawa),2015-09-28,06:01～07:00,0.0639,0.0561,0.0596,
江戸川 (Edogawa),2015-09-28,05:01～06:00,0.0628,0.0567,0.0598,
江戸川 (Edogawa),2015-09-28,04:01～05:00,0.0631,0.0548,0.0595,
江戸川 (Edogawa),2015-09-28,03:01～04:00,0.0644,0.0560,0.0598,
江戸川 (Edogawa),2015-09-28,02:01～03:00,0.0646,0.0551,0.0596,
江戸川 (Edogawa),2015-09-28,01:01～02:00,0.0628,0.0564,0.0597,
江戸川 (Edogawa),2015-09-28,00:01～01:00,0.0638,0.0571,0.0600,
